Simultaneous Nadir Overpasses (SNOs) Predictions

Prediction of SNOs between GOES-17 and AQUA Satellite Orbit:

Table of predicted SNOs for the next 14.0 days since TLE Epoch: 10/3/2025
Index Date Time (GOES-17) GOES-17 Lat,Lon AQUA Lat,Lon Distance(km) Time Diff (sec)
1 10/04/2025 08:47:50 -0.18, -89.49 -0.42, -88.48 115.37 80
2 10/04/2025 21:09:40 0.16, -89.50 -0.62, -93.11 410.43 80
3 10/06/2025 20:46:12 0.17, -89.51 0.51, -88.02 170.43 80
4 10/07/2025 09:07:53 -0.15, -89.51 0.49, -92.61 351.85 80
5 10/09/2025 08:44:23 -0.16, -89.52 -0.62, -87.51 229.31 80
6 10/09/2025 21:06:12 0.14, -89.52 -0.43, -92.12 296.43 80
7 10/11/2025 20:42:40 0.15, -89.53 0.67, -87.01 285.71 80
8 10/12/2025 09:04:20 -0.13, -89.53 0.35, -91.60 235.80 80
9 10/14/2025 08:40:47 -0.15, -89.54 -0.78, -86.49 346.96 80
10 10/14/2025 21:02:35 0.12, -89.54 -0.20, -91.11 178.50 80
11 10/16/2025 20:39:01 0.14, -89.56 0.91, -85.99 406.47 80
12 10/17/2025 09:00:39 -0.12, -89.57 0.12, -90.57 113.73 80
